TimeCDT,TemperatureF,Dew PointF,Humidity,Sea Level PressureIn,VisibilityMPH,Wind Direction,Wind SpeedMPH,Gust SpeedMPH,PrecipitationIn,Events,Conditions,WindDirDegrees,DateUTC
12:08 AM,44.6,44.6,100,29.98,2.0,ENE,3.5,-,N/A,,Clear,70,2013-09-25 05:08:00
12:13 AM,44.6,44.6,100,29.98,0.8,ENE,2.3,-,N/A,,Clear,60,2013-09-25 05:13:00
12:18 AM,44.6,44.6,100,29.98,0.2,ENE,3.5,-,N/A,Fog,Fog,60,2013-09-25 05:18:00
12:28 AM,44.6,44.6,100,29.98,0.8,NNE,2.3,-,N/A,,Clear,30,2013-09-25 05:28:00
12:33 AM,44.6,44.6,100,29.98,1.8,NNE,2.3,-,N/A,,Clear,20,2013-09-25 05:33:00
12:38 AM,42.8,42.8,100,29.98,0.5,NE,2.3,-,N/A,Fog,Fog,40,2013-09-25 05:38:00
12:43 AM,39.2,39.2,100,29.99,0.2,NNE,2.3,-,N/A,Fog,Fog,20,2013-09-25 05:43:00
12:58 AM,42.6,42.6,100,30.01,0.2,Calm,Calm,-,N/A,Fog,Fog,0,2013-09-25 05:58:00
1:18 AM,41.0,41.0,100,29.99,0.5,NNE,1.2,-,N/A,Fog,Fog,30,2013-09-25 06:18:00
1:23 AM,41.0,41.0,100,29.99,0.2,East,2.3,-,N/A,Fog,Fog,80,2013-09-25 06:23:00
1:38 AM,39.2,39.2,100,29.99,0.5,East,1.2,-,N/A,Fog,Fog,80,2013-09-25 06:38:00
1:43 AM,41.0,41.0,100,29.99,1.0,Calm,Calm,-,N/A,,Clear,0,2013-09-25 06:43:00
1:48 AM,41.0,41.0,100,29.99,0.8,East,2.3,-,N/A,,Clear,80,2013-09-25 06:48:00
1:53 AM,41.0,41.0,100,29.99,0.5,East,3.5,-,N/A,Fog,Fog,90,2013-09-25 06:53:00
1:58 AM,41.7,41.7,100,30.01,0.2,Variable,1.2,-,N/A,Fog,Fog,0,2013-09-25 06:58:00
2:08 AM,41.0,41.0,100,29.99,0.5,Calm,Calm,-,N/A,Fog,Fog,0,2013-09-25 07:08:00
2:13 AM,41.0,41.0,100,29.99,2.0,Calm,Calm,-,N/A,,Clear,0,2013-09-25 07:13:00
2:18 AM,41.0,41.0,100,29.99,6.0,Calm,Calm,-,N/A,,Clear,0,2013-09-25 07:18:00
2:28 AM,41.0,41.0,100,29.99,1.2,WNW,2.3,-,N/A,,Clear,300,2013-09-25 07:28:00
2:33 AM,41.0,41.0,100,29.99,0.5,Calm,Calm,-,N/A,Fog,Fog,0,2013-09-25 07:33:00
2:38 AM,37.4,37.4,100,29.99,0.2,Calm,Calm,-,N/A,Fog,Fog,0,2013-09-25 07:38:00
2:53 AM,37.4,37.4,100,29.99,0.2,Calm,Calm,-,N/A,Fog,Fog,0,2013-09-25 07:53:00
2:58 AM,36.9,36.9,100,30.02,0.2,Calm,Calm,-,N/A,Fog,Fog,0,2013-09-25 07:58:00
3:14 AM,37.4,37.4,100,30.00,0.2,Calm,Calm,-,N/A,Fog,Fog,0,2013-09-25 08:14:00
3:24 AM,37.4,37.4,100,30.00,0.2,Calm,Calm,-,N/A,Fog,Fog,0,2013-09-25 08:24:00
3:34 AM,37.4,37.4,100,30.00,0.5,Calm,Calm,-,N/A,Fog,Fog,0,2013-09-25 08:34:00
3:39 AM,37.4,37.4,100,30.00,0.2,Calm,Calm,-,N/A,Fog,Fog,0,2013-09-25 08:39:00
3:44 AM,37.4,37.4,100,30.00,0.5,Calm,Calm,-,N/A,Fog,Fog,0,2013-09-25 08:44:00
3:51 AM,39.2,39.2,100,30.00,0.5,Calm,Calm,-,N/A,Fog,Fog,0,2013-09-25 08:51:00
3:56 AM,39.2,39.2,100,30.00,0.2,Calm,Calm,-,N/A,Fog,Fog,0,2013-09-25 08:56:00
3:58 AM,39.4,39.4,100,30.01,0.2,Calm,Calm,-,N/A,Fog,Fog,0,2013-09-25 08:58:00
4:03 AM,39.2,39.2,100,30.00,0.5,Calm,Calm,-,N/A,Fog,Fog,0,2013-09-25 09:03:00
4:13 AM,37.4,37.4,100,30.00,0.2,Calm,Calm,-,N/A,Fog,Fog,0,2013-09-25 09:13:00
4:18 AM,39.2,39.2,100,30.00,0.5,Calm,Calm,-,N/A,Fog,Fog,0,2013-09-25 09:18:00
4:23 AM,39.2,39.2,100,30.00,0.8,Calm,Calm,-,N/A,,Mist,0,2013-09-25 09:23:00
4:28 AM,41.0,41.0,100,30.00,0.5,Calm,Calm,-,N/A,Fog,Fog,0,2013-09-25 09:28:00
4:33 AM,41.0,41.0,100,30.00,0.2,East,1.2,-,N/A,Fog,Fog,80,2013-09-25 09:33:00
4:58 AM,39.9,39.9,100,30.02,0.2,Calm,Calm,-,0.01,Fog,Fog,0,2013-09-25 09:58:00
5:28 AM,41.0,41.0,100,30.00,0.2,Calm,Calm,-,N/A,Fog,Fog,0,2013-09-25 10:28:00
5:58 AM,40.1,40.1,100,30.03,0.2,Calm,Calm,-,N/A,Fog,Fog,0,2013-09-25 10:58:00
6:03 AM,41.0,41.0,100,30.01,0.2,WNW,1.2,-,N/A,Fog,Fog,300,2013-09-25 11:03:00
6:13 AM,41.0,41.0,100,30.01,0.2,Calm,Calm,-,N/A,Fog,Fog,0,2013-09-25 11:13:00
6:38 AM,41.0,41.0,100,30.01,0.2,NNE,1.2,-,N/A,Fog,Fog,20,2013-09-25 11:38:00
6:43 AM,42.8,42.8,100,30.01,0.2,NNE,2.3,-,N/A,Fog,Fog,20,2013-09-25 11:43:00
6:58 AM,42.8,42.8,100,30.04,0.2,North,2.3,-,N/A,Fog,Fog,10,2013-09-25 11:58:00
7:58 AM,44.6,44.6,100,30.05,0.2,Calm,Calm,-,N/A,Fog,Fog,0,2013-09-25 12:58:00
8:18 AM,44.6,44.6,100,30.02,0.2,Calm,Calm,-,N/A,Fog,Fog,0,2013-09-25 13:18:00
8:58 AM,48.2,48.2,100,30.04,0.2,East,3.5,-,N/A,Fog,Fog,80,2013-09-25 13:58:00
9:58 AM,51.8,51.8,100,30.05,0.5,East,2.3,-,N/A,Fog,Fog,80,2013-09-25 14:58:00
10:15 AM,53.6,53.6,100,30.03,2.0,ESE,3.5,-,N/A,,Overcast,120,2013-09-25 15:15:00
10:38 AM,53.6,53.6,100,30.03,4.0,Variable,3.5,-,N/A,,Overcast,0,2013-09-25 15:38:00
10:58 AM,55.4,55.4,100,30.05,6.0,SE,5.8,-,N/A,,Mostly Cloudy,130,2013-09-25 15:58:00
11:58 AM,60.8,60.8,100,30.04,10.0,Variable,4.6,-,N/A,,Mostly Cloudy,0,2013-09-25 16:58:00
12:58 PM,66.2,51.8,60,30.02,10.0,East,5.8,-,N/A,,Scattered Clouds,80,2013-09-25 17:58:00
1:58 PM,68.0,51.8,56,30.00,10.0,SE,6.9,-,N/A,,Scattered Clouds,130,2013-09-25 18:58:00
2:58 PM,69.8,50.0,49,29.99,10.0,ESE,6.9,-,N/A,,Partly Cloudy,120,2013-09-25 19:58:00
3:58 PM,69.8,50.0,49,29.98,10.0,East,9.2,-,N/A,,Partly Cloudy,100,2013-09-25 20:58:00
4:58 PM,69.8,50.0,49,29.97,10.0,ESE,8.1,-,N/A,,Clear,120,2013-09-25 21:58:00
5:58 PM,66.2,51.8,60,29.98,10.0,ESE,8.1,-,N/A,,Clear,110,2013-09-25 22:58:00
6:58 PM,57.2,53.6,88,29.98,10.0,ESE,3.5,-,N/A,,Clear,110,2013-09-25 23:58:00
7:58 PM,50.0,50.0,100,29.99,10.0,Calm,Calm,-,N/A,,Clear,0,2013-09-26 00:58:00
8:58 PM,46.4,46.4,100,29.99,7.0,ENE,1.2,-,N/A,,Clear,70,2013-09-26 01:58:00
9:58 PM,42.8,42.8,100,29.99,7.0,East,4.6,-,N/A,,Clear,100,2013-09-26 02:58:00
10:58 PM,44.6,44.6,100,30.00,7.0,ESE,8.1,-,N/A,,Clear,110,2013-09-26 03:58:00
11:56 PM,46.4,46.4,100,29.98,1.8,SE,5.8,-,N/A,,Clear,140,2013-09-26 04:56:00
11:58 PM,46.4,46.4,100,30.00,1.8,SE,6.9,-,N/A,,Clear,140,2013-09-26 04:58:00